WST703 MYGF-MYNN

Flight info

Callsign WST703
Flight time 0h 22m
Altitude 11000
Route ZFP BR63V HANKX/N0295F100 BR63V ZQA
Aircraft E145/M-SDFGIRW/S

Departure

Time 2026-05-06 03:04
Airport Grand Bahama International Airport (MYGF)

Arrival

Time 2026-05-06 03:26
Airport Lynden Pindling International Airport (MYNN)
Time Latitude Longitude Altitude Speed Heading
2026-05-06 02:57 26.54868 -78.69772 12 ft 0 kts 231°
2026-05-06 03:00 26.54866 -78.69775 12 ft 2 kts 251°
2026-05-06 03:01 26.54909 -78.69814 12 ft 15 kts 291°
2026-05-06 03:01 26.54914 -78.69990 12 ft 28 kts 272°
2026-05-06 03:01 26.54921 -78.70213 12 ft 29 kts 275°
2026-05-06 03:01 26.54964 -78.70311 12 ft 12 kts 278°
2026-05-06 03:02 26.54969 -78.70417 12 ft 16 kts 272°
2026-05-06 03:02 26.54971 -78.70568 12 ft 23 kts 274°
2026-05-06 03:02 26.54980 -78.70773 12 ft 29 kts 271°
2026-05-06 03:02 26.55000 -78.70995 12 ft 21 kts 314°
2026-05-06 03:03 26.55063 -78.71004 12 ft 9 kts
2026-05-06 03:03 26.55153 -78.70983 12 ft 14 kts 39°
2026-05-06 03:03 26.55191 -78.70917 13 ft 16 kts 60°
2026-05-06 03:03 26.55372 -78.70554 12 ft 89 kts 63°
2026-05-06 03:04 26.55780 -78.69737 14 ft 144 kts 61°
2026-05-06 03:04 26.56260 -78.68689 302 ft 155 kts 72°
2026-05-06 03:04 26.56255 -78.67543 1065 ft 144 kts 110°
2026-05-06 03:04 26.55552 -78.66644 1313 ft 177 kts 149°
2026-05-06 03:05 26.54394 -78.65863 1426 ft 212 kts 136°
2026-05-06 03:05 26.53167 -78.64741 1688 ft 240 kts 141°
2026-05-06 03:05 26.51755 -78.63612 2213 ft 251 kts 143°
2026-05-06 03:05 26.50318 -78.62497 2928 ft 253 kts 144°
2026-05-06 03:06 26.48853 -78.61369 3590 ft 258 kts 144°
2026-05-06 03:06 26.47355 -78.60217 4247 ft 263 kts 145°
2026-05-06 03:06 26.45839 -78.59053 4905 ft 267 kts 146°
2026-05-06 03:06 26.44318 -78.57886 5578 ft 270 kts 146°
2026-05-06 03:07 26.42750 -78.56683 6179 ft 276 kts 146°
2026-05-06 03:07 26.41165 -78.55466 6830 ft 278 kts 146°
2026-05-06 03:07 26.39549 -78.54227 7443 ft 282 kts 146°
2026-05-06 03:07 26.37897 -78.52961 7994 ft 294 kts 146°
2026-05-06 03:08 26.36230 -78.51681 8979 ft 291 kts 146°
2026-05-06 03:08 26.34547 -78.50392 9836 ft 294 kts 147°
2026-05-06 03:08 26.32847 -78.49091 10566 ft 300 kts 146°
2026-05-06 03:08 26.31088 -78.47745 11018 ft 317 kts 146°
2026-05-06 03:09 26.29168 -78.46276 11062 ft 347 kts 146°
2026-05-06 03:09 26.27060 -78.44664 11067 ft 376 kts 146°
2026-05-06 03:09 26.24830 -78.42958 11064 ft 401 kts 146°
2026-05-06 03:09 26.22458 -78.41146 11058 ft 422 kts 146°
2026-05-06 03:10 26.19984 -78.39255 11058 ft 437 kts 146°
2026-05-06 03:10 26.17413 -78.37290 11054 ft 449 kts 146°
2026-05-06 03:10 26.14804 -78.35304 11055 ft 458 kts 146°
2026-05-06 03:10 26.12113 -78.33253 11050 ft 465 kts 146°
2026-05-06 03:11 26.09396 -78.31182 11045 ft 470 kts 147°
2026-05-06 03:11 26.06644 -78.29087 11051 ft 475 kts 146°
2026-05-06 03:11 26.04060 -78.27119 11049 ft 478 kts 146°
2026-05-06 03:11 26.01306 -78.25023 11049 ft 480 kts 146°
2026-05-06 03:12 25.98560 -78.22860 11046 ft 482 kts 143°
2026-05-06 03:12 25.95952 -78.20475 11041 ft 484 kts 136°
2026-05-06 03:12 25.93956 -78.17452 11038 ft 486 kts 118°
2026-05-06 03:12 25.92743 -78.13949 11054 ft 486 kts 109°
2026-05-06 03:13 25.91521 -78.10432 11048 ft 487 kts 112°
2026-05-06 03:13 25.90238 -78.06910 11051 ft 488 kts 112°
2026-05-06 03:13 25.88948 -78.03404 11048 ft 489 kts 112°
2026-05-06 03:13 25.87653 -77.99893 11043 ft 489 kts 112°
2026-05-06 03:14 25.86359 -77.96390 11048 ft 490 kts 112°
2026-05-06 03:14 25.85034 -77.92809 11048 ft 491 kts 112°
2026-05-06 03:14 25.83729 -77.89284 11046 ft 491 kts 112°
2026-05-06 03:14 25.82421 -77.85754 11049 ft 491 kts 112°
2026-05-06 03:15 25.81119 -77.82243 11051 ft 491 kts 112°
2026-05-06 03:15 25.79814 -77.78728 11046 ft 491 kts 112°
2026-05-06 03:15 25.78514 -77.75227 11045 ft 491 kts 112°
2026-05-06 03:15 25.77201 -77.71692 11049 ft 491 kts 112°
2026-05-06 03:16 25.75887 -77.68160 11047 ft 491 kts 112°
2026-05-06 03:16 25.74596 -77.64696 11051 ft 491 kts 112°
2026-05-06 03:16 25.73274 -77.61149 11051 ft 491 kts 112°
2026-05-06 03:16 25.71893 -77.57669 11034 ft 490 kts 118°
2026-05-06 03:17 25.69857 -77.54652 11028 ft 488 kts 135°
2026-05-06 03:17 25.67168 -77.52430 11026 ft 484 kts 152°
2026-05-06 03:17 25.63970 -77.51042 10473 ft 492 kts 168°
2026-05-06 03:17 25.60586 -77.50696 9847 ft 496 kts 184°
2026-05-06 03:18 25.57177 -77.51416 9216 ft 497 kts 200°
2026-05-06 03:18 25.53932 -77.52844 8605 ft 500 kts 200°
2026-05-06 03:18 25.50617 -77.53868 8013 ft 480 kts 197°
2026-05-06 03:18 25.47527 -77.54777 7408 ft 439 kts 196°
2026-05-06 03:19 25.44697 -77.55589 6802 ft 408 kts 196°
2026-05-06 03:19 25.42021 -77.56356 5715 ft 382 kts 195°
2026-05-06 03:19 25.39562 -77.57061 4500 ft 352 kts 195°
2026-05-06 03:19 25.37287 -77.57713 3296 ft 333 kts 194°
2026-05-06 03:20 25.33134 -77.58902 2038 ft 274 kts 194°
2026-05-06 03:20 25.31363 -77.59408 2001 ft 254 kts 194°
2026-05-06 03:20 25.29639 -77.59902 1966 ft 250 kts 195°
2026-05-06 03:21 25.27899 -77.60400 1975 ft 269 kts 195°
2026-05-06 03:21 25.26046 -77.60931 1966 ft 276 kts 195°
2026-05-06 03:21 25.24158 -77.61470 1961 ft 277 kts 194°
2026-05-06 03:21 25.22330 -77.61992 1953 ft 265 kts 194°
2026-05-06 03:22 25.20591 -77.62474 1950 ft 252 kts 189°
2026-05-06 03:22 25.18909 -77.62302 1964 ft 238 kts 156°
2026-05-06 03:22 25.17598 -77.61277 1972 ft 226 kts 136°
2026-05-06 03:22 25.16477 -77.60091 1959 ft 219 kts 134°
2026-05-06 03:23 25.15402 -77.58917 1962 ft 214 kts 134°
2026-05-06 03:23 25.14339 -77.57742 1962 ft 210 kts 134°
2026-05-06 03:23 25.13307 -77.56598 1960 ft 206 kts 134°
2026-05-06 03:23 25.12307 -77.55489 1960 ft 203 kts 134°
2026-05-06 03:24 25.11330 -77.54404 2000 ft 193 kts 134°
2026-05-06 03:24 25.10388 -77.53352 1958 ft 187 kts 134°
2026-05-06 03:24 25.09485 -77.52345 1957 ft 179 kts 134°
2026-05-06 03:24 25.08601 -77.51357 1641 ft 182 kts 135°
2026-05-06 03:25 25.07714 -77.50416 1242 ft 170 kts 135°
2026-05-06 03:25 25.06919 -77.49507 767 ft 162 kts 132°
2026-05-06 03:25 25.06157 -77.48644 417 ft 149 kts 133°
2026-05-06 03:25 25.05429 -77.47835 143 ft 146 kts 135°
2026-05-06 03:26 25.04728 -77.47066 29 ft 134 kts 132°
2026-05-06 03:26 25.04172 -77.46442 23 ft 67 kts 134°
2026-05-06 03:26 25.03977 -77.46230 22 ft 34 kts 135°
2026-05-06 03:26 25.03818 -77.46049 23 ft 27 kts 134°
2026-05-06 03:27 25.03781 -77.45916 23 ft 9 kts 44°
2026-05-06 03:27 25.03818 -77.45877 22 ft 7 kts 41°
2026-05-06 03:27 25.03869 -77.45857 22 ft 8 kts 340°
2026-05-06 03:27 25.03925 -77.45916 22 ft 15 kts 315°
2026-05-06 03:28 25.04027 -77.46027 22 ft 25 kts 313°
2026-05-06 03:28 25.04173 -77.46191 23 ft 34 kts 315°
2026-05-06 03:28 25.04317 -77.46351 22 ft 31 kts 316°
2026-05-06 03:28 25.04494 -77.46545 23 ft 39 kts 314°
2026-05-06 03:29 25.04701 -77.46747 22 ft 24 kts
2026-05-06 03:29 25.04772 -77.46670 22 ft 18 kts 44°
2026-05-06 03:29 25.04855 -77.46604 23 ft 4 kts
2026-05-06 03:29 25.04857 -77.46604 23 ft 0 kts